This is the latest recevied weather packets stored in our database for station/object ZS1DFR-1. If no packets are shown the sender has not sent any weather packets the latest 10 day(s).
| Time | Temp. | Humidity | Pressure | Rain* | Wind** | Luminosity | Snow |
|---|---|---|---|---|---|---|---|
| 1778111616 | 15° C | 90% | 1019.2 hPa | 0 mm | - | - | - |
| 1778110716 | 15° C | 90% | 1019.2 hPa | 0 mm | - | - | - |
| 1778109816 | 15° C | 88% | 1019.2 hPa | 0 mm | - | - | - |
| 1778108916 | 15° C | 88% | 1019.2 hPa | 0 mm | - | - | - |
| 1778108016 | 15° C | 82% | 1019.2 hPa | 0 mm | - | - | - |
| 1778107116 | 15° C | 82% | 1019.2 hPa | 0 mm | - | - | - |
| 1778106216 | 15° C | 83% | 1019.1 hPa | 0 mm | - | - | - |
| 1778105316 | 15° C | 83% | 1019.1 hPa | 0 mm | - | - | - |
| 1778104416 | 15° C | 86% | 1019 hPa | 0 mm | - | - | - |
| 1778103516 | 15° C | 86% | 1019 hPa | 0 mm | - | - | - |
| 1778102616 | 15° C | 86% | 1019.3 hPa | 0 mm | - | - | - |
| 1778101716 | 15° C | 86% | 1019.3 hPa | 0 mm | - | - | - |
| 1778100816 | 15.56° C | 83% | 1018.9 hPa | 0 mm | - | - | - |
| 1778099916 | 15.56° C | 83% | 1018.9 hPa | 0 mm | - | - | - |
| 1778099016 | 15.56° C | 81% | 1019 hPa | 0 mm | - | - | - |
| 1778098116 | 15.56° C | 81% | 1019 hPa | 0 mm | - | - | - |
| 1778097216 | 16.11° C | 84% | 1018.9 hPa | 0 mm | - | - | - |
| 1778096316 | 16.11° C | 84% | 1018.9 hPa | 0 mm | - | - | - |
| 1778095416 | 16.11° C | 84% | 1018.5 hPa | 0 mm | - | - | - |
| 1778094516 | 16.11° C | 84% | 1018.5 hPa | 0 mm | - | - | - |
| 1778093615 | 16.67° C | 82% | 1018.4 hPa | 0 mm | - | - | - |
| 1778092716 | 16.67° C | 82% | 1018.4 hPa | 0 mm | - | - | - |
| 1778091816 | 16.67° C | 81% | 1018.2 hPa | 0 mm | - | - | - |
| 1778090916 | 16.67° C | 81% | 1018.2 hPa | 0 mm | - | - | - |
| 1778090016 | 16.67° C | 80% | 1017.9 hPa | 0 mm | - | - | - |
* Rain latest hour (hover to see other rain measurements)
** Current wind speed in m/s (hover to see current wind gust speed)